Regional Weather Roundup
Issued by NWS Jackson, KY

Home | Current Version | Previous Version | Graphics & Text | Print | Product List | Glossary On
Versions: 1 2 3 4 5 6 7 8 9 10 11 12 13 14 15 16 17 18 19 20 21 22 23 24 25 26 27 28 29 30 31 32 33 34 35 36 37 38 39 40 41 42 43 44 45 46 47 48 49 50
000
ASUS43 KJKL 041710
RWRJKL

EAST KENTUCKY HOURLY WEATHER ROUNDUP
NATIONAL WEATHER SERVICE JACKSON KY
100 PM EDT FRI SEP 04 2015

NOTE: "FAIR" INDICATES FEW OR NO CLOUDS BELOW 12,000 FEET WITH
NO SIGNIFICANT WEATHER AND/OR OBSTRUCTIONS TO VISIBILITY.

* THESE REPORTS ARE NOT UNDER NWS QUALITY CONTROL AND MAY NOT
  REPORT WEATHER SUCH AS PRECIPITATION AND FOG.

KYZ079-080-083-085-087-088-110-112-115-119-120-041800
...EASTERN KENTUCKY...

CITY           SKY/WX    TMP DP  RH WIND       PRES   REMARKS
JACKSON        MOSUNNY   86  67  52 VRB3      30.11S
LONDON         MOSUNNY   90  65  43 VRB6      30.09F HX  92
SOMERSET*      MOSUNNY   86  64  48 CALM      30.09F
MONTICELLO*    SUNNY     89  68  49 NE3       30.10F HX  92
WILLIAMSBURG*  SUNNY     84  66  54 CALM      30.09F
MIDDLESBORO*   SUNNY     85  68  56 E6        30.09F
HARLAN APT*      N/A     88  64  45 MISG      30.11F
HAZARD APT*    MOSUNNY   86  66  51 NE3       30.10S
BLACK MTN*       N/A     75  63  64 N1          N/A
PIKEVILLE APT* MOSUNNY   82  70  65 NE3       30.11F
BIG SANDY*     SUNNY     85  70  60 NE3       30.11S
MOREHEAD APT*  SUNNY     90  64  43 N6        30.10F HX  91
$$

KYZ035-036-041-042-044-050-067-078-099-041800
...CENTRAL KENTUCKY...

CITY           SKY/WX    TMP DP  RH WIND       PRES   REMARKS
MT STERLING*   SUNNY     88  64  45 CALM      30.10S
FLEMING/MASON* SUNNY     90  66  45 W6        30.09F HX  92
DANVILLE*      SUNNY     88  64  45 SE3       30.09F
RICHMOND*      MOSUNNY   86  64  48 SE3       30.08S
LEXINGTON      SUNNY     89  64  43 VRB5      30.08S HX  90
FRANKFORT      SUNNY     90  64  42 VRB3      30.06F HX  91
$$

KYZ091>093-OHZ055-061-077-WVZ005-015-034-035-042-041800
...SOUTHERN OHIO/WEST VIRGINIA...

CITY           SKY/WX    TMP DP  RH WIND       PRES   REMARKS
COVINGTON      MOSUNNY   88  66  48 W3        30.07S HX  90
COLUMBUS       PTSUNNY   77  68  73 SE5       30.07S
DAYTON         PTSUNNY   85  69  58 W8        30.06F
WILMINGTON     SUNNY     86  69  56 SW7       30.07F HX  90
HUNTINGTON     MOSUNNY   86  69  56 VRB6      30.08S HX  90
CHARLESTON     MOSUNNY   85  67  54 VRB3      30.09F
PINEVILLE*     MOSUNNY   84  70  62 MISG      30.17F
BECKLEY        SUNNY     81  64  56 NE8       30.17S
BLUEFIELD      CLOUDY    82  62  50 VRB3      30.18F
$$

VAZ002-007-008-TNZ017-027-036-066-071-041800
...SOUTHWEST VIRGINIA/EAST TENNESSEE...

CITY           SKY/WX    TMP DP  RH WIND       PRES   REMARKS
WISE*          MOSUNNY   81  61  50 NE5       30.19S
JONESVILLE*      N/A    N/A N/A N/A NE5       30.11F
ABINGDON*      MOSUNNY   84  61  45 E5        30.13F
BRISTOL        MOSUNNY   84  66  54 CALM      30.10F
KNOXVILLE      MOSUNNY   87  66  49 NE7       30.05F
OAK RIDGE      SUNNY     88  66  48 E8        30.07F HX  90
CROSSVILLE     MOSUNNY   85  63  47 NE7       30.12F
NASHVILLE      MOSUNNY   91  63  39 VRB6      30.05F HX  92
$$

...KEY TO REMARKS...
VSB - VISIBILITY IN MILES
WCI - WIND CHILL INDEX
HX  - HEAT INDEX

$$


USA.gov is the U.S. government's official web portal to all federal, state and local government web resources and services.